| time (UTC) | temp C | wind direction | speed KPH | gust KPH | rain 1hr cm | rain 24hr cm | rain mn cm | humidity % | barometer mb |
| 20260507105009 | 9 | 73 | 4.8 | 6.4 | 0.00 | 0.28 | 0.28 | 99 | 1006.2 |
| 20260507104506 | 8 | 93 | 1.6 | 3.2 | 0.00 | 0.28 | 0.28 | 99 | 1006.5 |
| 20260507104002 | 9 | 84 | 0.0 | 3.2 | 0.00 | 0.28 | 0.28 | 99 | 1006.5 |
| 20260507103459 | 8 | 81 | 3.2 | 3.2 | 0.00 | 0.28 | 0.28 | 99 | 1006.6 |
| 20260507102955 | 7 | 114 | 3.2 | 3.2 | 0.00 | 0.28 | 0.28 | 99 | 1006.7 |
| 20260507102452 | 7 | 66 | 0.0 | 3.2 | 0.00 | 0.28 | 0.28 | 99 | 1006.6 |
| 20260507101948 | 7 | 71 | 1.6 | 3.2 | 0.00 | 0.28 | 0.28 | 99 | 1006.1 |
| 20260507101443 | 7 | 68 | 1.6 | 3.2 | 0.00 | 0.28 | 0.28 | 99 | 1006.0 |
| 20260507100940 | 7 | 138 | 3.2 | 4.8 | 0.00 | 0.28 | 0.28 | 99 | 1005.9 |
| 20260507100438 | 6 | 74 | 3.2 | 3.2 | 0.00 | 0.28 | 0.28 | 99 | 1006.2 |
| 20260507095936 | 6 | 132 | 0.0 | 6.4 | 0.00 | 0.28 | 0.28 | 99 | 1005.9 |
| 20260507095433 | 6 | 23 | 4.8 | 6.4 | 0.00 | 0.28 | 0.28 | 99 | 1005.9 |
| 20260507094930 | 6 | 94 | 3.2 | 4.8 | 0.00 | 0.28 | 0.28 | 99 | 1006.2 |
| 20260507094426 | 6 | 86 | 3.2 | 3.2 | 0.00 | 0.28 | 0.28 | 99 | 1005.8 |
| 20260507093923 | 6 | 33 | 0.0 | 3.2 | 0.00 | 0.28 | 0.28 | 99 | 1006.3 |
| 20260507093421 | 6 | 115 | 3.2 | 3.2 | 0.00 | 0.28 | 0.28 | 99 | 1006.0 |
| 20260507092919 | 6 | 104 | 4.8 | 4.8 | 0.00 | 0.28 | 0.28 | 99 | 1006.0 |
| 20260507092415 | 6 | 44 | 1.6 | 3.2 | 0.00 | 0.28 | 0.28 | 99 | 1005.9 |
| 20260507091912 | 6 | 18 | 3.2 | 4.8 | 0.00 | 0.28 | 0.28 | 99 | 1005.9 |
| 20260507091408 | 6 | 321 | 3.2 | 3.2 | 0.00 | 0.28 | 0.28 | 99 | 1006.0 |
| 20260507090904 | 6 | 225 | 0.0 | 3.2 | 0.00 | 0.28 | 0.28 | 99 | 1006.2 |
| 20260507090400 | 6 | 77 | 0.0 | 3.2 | 0.00 | 0.28 | 0.28 | 99 | 1006.1 |
| 20260507085857 | 7 | 57 | 1.6 | 3.2 | 0.00 | 0.28 | 0.28 | 99 | 1006.3 |
| 20260507085354 | 7 | 202 | 0.0 | 3.2 | 0.00 | 0.28 | 0.28 | 99 | 1006.3 |
| 20260507084851 | 7 | 97 | 0.0 | 3.2 | 0.00 | 0.28 | 0.28 | 99 | 1006.0 |
| 20260507084348 | 7 | 62 | 0.0 | 4.8 | 0.00 | 0.28 | 0.28 | 99 | 1005.6 |
| 20260507083845 | 7 | 126 | 3.2 | 4.8 | 0.00 | 0.28 | 0.28 | 99 | 1005.8 |
| 20260507083341 | 7 | 67 | 3.2 | 6.4 | 0.00 | 0.28 | 0.28 | 99 | 1005.5 |
| 20260507082838 | 7 | 28 | 0.0 | 3.2 | 0.00 | 0.28 | 0.28 | 99 | 1005.4 |
| 20260507082333 | 7 | 64 | 6.4 | 6.4 | 0.05 | 0.28 | 0.28 | 99 | 1005.7 |
| 20260507081831 | 7 | 104 | 4.8 | 8.0 | 0.05 | 0.28 | 0.28 | 99 | 1005.6 |
| 20260507081326 | 7 | 23 | 4.8 | 6.4 | 0.00 | 0.28 | 0.28 | 99 | 1005.8 |
| 20260507080823 | 7 | 25 | 4.8 | 6.4 | 0.00 | 0.28 | 0.28 | 99 | 1005.8 |
| 20260507080320 | 7 | 347 | 3.2 | 6.4 | 0.05 | 0.28 | 0.28 | 99 | 1005.8 |
| 20260507075815 | 7 | 7 | 9.7 | 9.7 | 0.00 | 0.28 | 0.28 | 99 | 1005.6 |
| 20260507075312 | 7 | 34 | 4.8 | 6.4 | 0.05 | 0.28 | 0.28 | 99 | 1006.1 |
| 20260507074808 | 8 | 85 | 3.2 | 3.2 | 0.05 | 0.28 | 0.28 | 99 | 1005.8 |
| 20260507074306 | 8 | 86 | 3.2 | 3.2 | 0.00 | 0.25 | 0.25 | 99 | 1006.2 |
| 20260507073803 | 8 | 79 | 0.0 | 1.6 | 0.05 | 0.25 | 0.25 | 99 | 1006.0 |
| 20260507073259 | 8 | 55 | 3.2 | 3.2 | 0.05 | 0.25 | 0.25 | 99 | 1005.5 |
| 20260507072757 | 8 | 83 | 1.6 | 4.8 | 0.05 | 0.25 | 0.25 | 99 | 1005.7 |
| 20260507072254 | 8 | 61 | 3.2 | 4.8 | 0.05 | 0.25 | 0.25 | 99 | 1005.7 |
| 20260507071751 | 8 | 137 | 3.2 | 3.2 | 0.05 | 0.23 | 0.23 | 99 | 1005.7 |
| 20260507071248 | 8 | 43 | 3.2 | 6.4 | 0.05 | 0.23 | 0.23 | 99 | 1005.6 |
| 20260507070745 | 8 | 38 | 1.6 | 3.2 | 0.05 | 0.23 | 0.23 | 99 | 1005.4 |
| 20260507070242 | 8 | 83 | 3.2 | 3.2 | 0.05 | 0.23 | 0.23 | 99 | 1005.2 |
| 20260507065738 | 8 | 25 | 3.2 | 3.2 | 0.05 | 0.23 | 0.23 | 99 | 1005.2 |
| 20260507065235 | 8 | 18 | 1.6 | 3.2 | 0.05 | 0.23 | 0.23 | 99 | 1005.3 |
| 20260507064732 | 8 | 55 | 8.0 | 8.0 | 0.05 | 0.20 | 0.20 | 99 | 1005.1 |
| 20260507064231 | 8 | 53 | 3.2 | 6.4 | 0.05 | 0.20 | 0.20 | 99 | 1005.3 |
| 20260507063728 | 8 | 57 | 1.6 | 3.2 | 0.05 | 0.20 | 0.20 | 99 | 1005.3 |
| 20260507063225 | 8 | 20 | 3.2 | 4.8 | 0.05 | 0.20 | 0.20 | 99 | 1005.1 |
| 20260507062722 | 8 | 62 | 3.2 | 3.2 | 0.05 | 0.18 | 0.18 | 99 | 1005.0 |
| 20260507062219 | 8 | 74 | 0.0 | 3.2 | 0.13 | 0.18 | 0.18 | 99 | 1005.1 |
| 20260507061717 | 8 | 29 | 3.2 | 4.8 | 0.05 | 0.18 | 0.18 | 99 | 1005.2 |
| 20260507061215 | 8 | 54 | 3.2 | 3.2 | 0.05 | 0.18 | 0.18 | 99 | 1005.1 |
| 20260507060713 | 8 | 25 | 4.8 | 6.4 | 0.05 | 0.18 | 0.18 | 99 | 1004.7 |
| 20260507060209 | 8 | 44 | 4.8 | 8.0 | 0.05 | 0.15 | 0.15 | 99 | 1004.9 |
| 20260507055705 | 8 | 61 | 4.8 | 6.4 | 0.13 | 0.15 | 0.15 | 99 | 1004.6 |
| 20260507055200 | 8 | 26 | 9.7 | 9.7 | 0.05 | 0.15 | 0.15 | 99 | 1004.9 |
| 20260507054657 | 8 | 41 | 4.8 | 6.4 | 0.05 | 0.15 | 0.15 | 99 | 1004.9 |
| 20260507054154 | 8 | 38 | 4.8 | 4.8 | 0.05 | 0.15 | 0.15 | 99 | 1005.1 |
| 20260507053652 | 8 | 46 | 6.4 | 8.0 | 0.05 | 0.13 | 0.13 | 99 | 1005.0 |
| 20260507053150 | 8 | 53 | 3.2 | 4.8 | 0.13 | 0.13 | 0.13 | 99 | 1004.9 |
| 20260507052648 | 8 | 99 | 3.2 | 9.7 | 0.05 | 0.13 | 0.13 | 99 | 1005.0 |
| 20260507052143 | 8 | 0 | 4.8 | 14.5 | 0.05 | 0.10 | 0.10 | 99 | 1005.2 |
| 20260507051641 | 8 | 0 | 3.2 | 6.4 | 0.05 | 0.10 | 0.10 | 99 | 1005.4 |
| 20260507051138 | 8 | 14 | 3.2 | 4.8 | 0.05 | 0.10 | 0.10 | 99 | 1005.4 |
| 20260507050635 | 8 | 67 | 1.6 | 4.8 | 0.05 | 0.10 | 0.10 | 99 | 1005.4 |
| 20260507050131 | 9 | 59 | 4.8 | 9.7 | 0.05 | 0.08 | 0.08 | 99 | 1005.1 |
| 20260507045629 | 9 | 256 | 3.2 | 6.4 | 0.05 | 0.08 | 0.08 | 99 | 1005.5 |
| 20260507045125 | 9 | 31 | 4.8 | 8.0 | 0.05 | 0.08 | 0.08 | 99 | 1005.5 |
| 20260507044622 | 9 | 30 | 3.2 | 9.7 | 0.05 | 0.05 | 0.05 | 99 | 1005.1 |
| 20260507044119 | 9 | 23 | 6.4 | 9.7 | 0.13 | 0.05 | 0.05 | 99 | 1005.1 |
| 20260507043615 | 9 | 166 | 0.0 | 6.4 | 0.05 | 0.05 | 0.05 | 99 | 1004.9 |
| 20260507043112 | 9 | 42 | 8.0 | 12.9 | 0.05 | 0.05 | 0.05 | 99 | 1004.8 |
| 20260507042608 | 9 | 80 | 6.4 | 14.5 | 0.13 | 0.05 | 0.05 | 99 | 1004.7 |
| 20260507042103 | 10 | 88 | 3.2 | 8.0 | 0.05 | 0.03 | 0.03 | 99 | 1005.1 |
| 20260507041600 | 10 | 8 | 8.0 | 20.9 | 0.05 | 0.03 | 0.03 | 99 | 1004.8 |
| 20260507041057 | 10 | 19 | 3.2 | 8.0 | 0.05 | 0.03 | 0.03 | 99 | 1005.1 |
| 20260507040554 | 10 | 252 | 0.0 | 8.0 | 0.05 | 0.00 | 0.00 | 99 | 1005.0 |
| 20260507040050 | 10 | 58 | 9.7 | 11.3 | 0.05 | 1.09 | 1.09 | 99 | 1004.8 |
| 20260507035546 | 10 | 23 | 3.2 | 11.3 | 0.05 | 1.09 | 1.09 | 99 | 1005.0 |
| 20260507035043 | 10 | 20 | 4.8 | 20.9 | 0.05 | 1.07 | 1.07 | 99 | 1004.9 |
| 20260507034540 | 10 | 317 | 6.4 | 17.7 | 0.13 | 1.07 | 1.07 | 99 | 1004.8 |
| 20260507034038 | 11 | 323 | 6.4 | 22.5 | 0.05 | 1.07 | 1.07 | 99 | 1004.6 |
| 20260507033535 | 11 | 80 | 0.0 | 6.4 | 0.05 | 1.07 | 1.07 | 99 | 1004.3 |
| 20260507033032 | 11 | 191 | 0.0 | 3.2 | 0.05 | 1.07 | 1.07 | 99 | 1004.2 |
| 20260507032530 | 11 | 195 | 1.6 | 4.8 | 0.05 | 1.04 | 1.04 | 99 | 1003.9 |
| 20260507032026 | 11 | 105 | 0.0 | 1.6 | 0.05 | 1.04 | 1.04 | 99 | 1003.6 |
| 20260507031522 | 11 | 76 | 0.0 | 3.2 | 0.05 | 1.04 | 1.04 | 99 | 1003.7 |
| 20260507031019 | 11 | 169 | 3.2 | 3.2 | 0.05 | 1.04 | 1.04 | 99 | 1003.9 |
| 20260507030516 | 11 | 221 | 3.2 | 11.3 | 0.05 | 1.04 | 1.04 | 99 | 1003.7 |
| 20260507030014 | 11 | 116 | 1.6 | 4.8 | 0.05 | 1.04 | 1.04 | 99 | 1003.8 |
| 20260507025510 | 11 | 310 | 3.2 | 8.0 | 0.05 | 1.02 | 1.02 | 99 | 1003.9 |
| 20260507025008 | 11 | 108 | 3.2 | 12.9 | 0.05 | 1.02 | 1.02 | 99 | 1003.7 |
| 20260507024506 | 11 | 200 | 0.0 | 9.7 | 0.05 | 1.02 | 1.02 | 99 | 1003.9 |
| 20260507024001 | 11 | 129 | 3.2 | 6.4 | 0.05 | 1.02 | 1.02 | 99 | 1004.0 |
| 20260507023458 | 11 | 126 | 3.2 | 6.4 | 0.05 | 0.99 | 0.99 | 99 | 1003.8 |
| 20260507022955 | 11 | 189 | 8.0 | 9.7 | 0.13 | 0.99 | 0.99 | 99 | 1003.8 |
| 20260507022452 | 11 | 181 | 9.7 | 14.5 | 0.05 | 0.99 | 0.99 | 99 | 1003.8 |
| 20260507021948 | 11 | 181 | 6.4 | 20.9 | 0.05 | 0.99 | 0.99 | 99 | 1004.0 |
| 20260507021443 | 12 | 164 | 1.6 | 14.5 | 0.05 | 0.99 | 0.99 | 99 | 1003.8 |
| 20260507020941 | 12 | 60 | 4.8 | 16.1 | 0.05 | 0.97 | 0.97 | 99 | 1003.6 |
| 20260507020438 | 12 | 139 | 3.2 | 8.0 | 0.00 | 0.97 | 0.97 | 99 | 1003.7 |
| 20260507015935 | 12 | 206 | 0.0 | 8.0 | 0.05 | 0.97 | 0.97 | 99 | 1003.9 |
| 20260507015433 | 12 | 131 | 6.4 | 11.3 | 0.05 | 0.97 | 0.97 | 99 | 1003.9 |
| 20260507014930 | 12 | 224 | 6.4 | 9.7 | 0.05 | 0.94 | 0.94 | 99 | 1003.7 |
| 20260507014426 | 12 | 205 | 6.4 | 11.3 | 0.05 | 0.94 | 0.94 | 99 | 1003.8 |
| 20260507013922 | 12 | 320 | 4.8 | 11.3 | 0.05 | 0.94 | 0.94 | 99 | 1003.9 |
| 20260507013419 | 12 | 248 | 4.8 | 9.7 | 0.05 | 0.94 | 0.94 | 99 | 1004.0 |
| 20260507012917 | 12 | 199 | 4.8 | 16.1 | 0.00 | 0.94 | 0.94 | 99 | 1004.0 |
| 20260507012413 | 12 | 218 | 12.9 | 24.1 | 0.00 | 0.94 | 0.94 | 99 | 1004.3 |
| 20260507011905 | 12 | 207 | 9.7 | 20.9 | 0.00 | 0.94 | 0.94 | 99 | 1004.4 |
| 20260507011402 | 12 | 165 | 4.8 | 8.0 | 0.00 | 0.94 | 0.94 | 99 | 1004.3 |
| 20260507010901 | 12 | 100 | 8.0 | 20.9 | 0.05 | 0.94 | 0.94 | 99 | 1004.6 |
| 20260507010356 | 12 | 238 | 4.8 | 19.3 | 0.05 | 0.94 | 0.94 | 99 | 1004.4 |
| 20260507005854 | 12 | 83 | 3.2 | 6.4 | 0.00 | 0.91 | 0.91 | 99 | 1004.5 |
| 20260507005351 | 12 | 129 | 3.2 | 4.8 | 0.05 | 0.91 | 0.91 | 99 | 1004.7 |
| 20260507004848 | 12 | 156 | 3.2 | 6.4 | 0.05 | 0.91 | 0.91 | 99 | 1004.6 |
| 20260507004345 | 12 | 160 | 4.8 | 11.3 | 0.05 | 0.91 | 0.91 | 99 | 1004.6 |
| 20260507003842 | 12 | 240 | 3.2 | 8.0 | 0.05 | 0.91 | 0.91 | 99 | 1004.8 |
| 20260507003337 | 12 | 239 | 16.1 | 17.7 | 0.05 | 0.89 | 0.89 | 99 | 1004.5 |
| 20260507002832 | 12 | 130 | 1.6 | 8.0 | 0.05 | 0.89 | 0.89 | 99 | 1004.8 |
| 20260507002328 | 12 | 117 | 4.8 | 8.0 | 0.05 | 0.89 | 0.89 | 99 | 1004.7 |
| 20260507001826 | 12 | 111 | 3.2 | 8.0 | 0.05 | 0.89 | 0.89 | 99 | 1004.6 |
| 20260507001323 | 12 | 143 | 0.0 | 6.4 | 0.05 | 0.89 | 0.89 | 99 | 1004.6 |
| 20260507000819 | 12 | 82 | 3.2 | 6.4 | 0.05 | 0.86 | 0.86 | 99 | 1004.7 |
| 20260507000315 | 12 | 141 | 3.2 | 6.4 | 0.05 | 0.86 | 0.86 | 99 | 1004.8 |
| 20260506235812 | 12 | 94 | 1.6 | 6.4 | 0.13 | 0.86 | 0.86 | 99 | 1004.9 |
| 20260506235308 | 12 | 89 | 3.2 | 16.1 | 0.05 | 0.86 | 0.86 | 99 | 1004.8 |
| 20260506234804 | 12 | 152 | 9.7 | 9.7 | 0.13 | 0.86 | 0.86 | 99 | 1004.9 |
| 20260506234302 | 12 | 214 | 3.2 | 6.4 | 0.13 | 0.84 | 0.84 | 99 | 1004.7 |
| 20260506233759 | 12 | 151 | 4.8 | 9.7 | 0.05 | 0.84 | 0.84 | 99 | 1005.0 |
| 20260506233250 | 12 | 122 | 6.4 | 9.7 | 0.05 | 0.81 | 0.81 | 99 | 1005.0 |
| 20260506232742 | 12 | 120 | 3.2 | 14.5 | 0.05 | 0.81 | 0.81 | 99 | 1005.1 |
| 20260506232241 | 12 | 212 | 4.8 | 17.7 | 0.13 | 0.81 | 0.81 | 99 | 1005.3 |
| 20260506231739 | 12 | 165 | 6.4 | 8.0 | 0.05 | 0.81 | 0.81 | 99 | 1005.1 |
| 20260506231237 | 12 | 132 | 6.4 | 9.7 | 0.05 | 0.79 | 0.79 | 99 | 1005.1 |
| 20260506230734 | 12 | 115 | 3.2 | 14.5 | 0.05 | 0.79 | 0.79 | 99 | 1005.2 |
| 20260506230230 | 12 | 94 | 1.6 | 12.9 | 0.13 | 0.79 | 0.79 | 99 | 1005.3 |
| 20260506225727 | 12 | 131 | 4.8 | 6.4 | 0.13 | 0.76 | 0.76 | 99 | 1005.4 |
| 20260506225224 | 12 | 148 | 4.8 | 8.0 | 0.13 | 0.76 | 0.76 | 99 | 1005.5 |
| 20260506224721 | 12 | 183 | 4.8 | 8.0 | 0.13 | 0.74 | 0.74 | 99 | 1005.5 |
| 20260506224218 | 12 | 211 | 8.0 | 17.7 | 0.13 | 0.74 | 0.74 | 99 | 1005.4 |
| 20260506223714 | 12 | 157 | 6.4 | 16.1 | 0.05 | 0.74 | 0.74 | 99 | 1005.5 |
| 20260506223210 | 12 | 119 | 3.2 | 16.1 | 0.05 | 0.71 | 0.71 | 99 | 1005.7 |
| 20260506222707 | 12 | 210 | 4.8 | 8.0 | 0.05 | 0.71 | 0.71 | 99 | 1005.7 |
| 20260506222202 | 12 | 108 | 3.2 | 4.8 | 0.13 | 0.71 | 0.71 | 99 | 1005.8 |
| 20260506221701 | 12 | 81 | 4.8 | 8.0 | 0.13 | 0.71 | 0.71 | 99 | 1005.8 |
| 20260506221158 | 12 | 133 | 3.2 | 12.9 | 0.13 | 0.69 | 0.69 | 99 | 1005.9 |
| 20260506220655 | 12 | 200 | 3.2 | 17.7 | 0.13 | 0.69 | 0.69 | 99 | 1006.0 |
| 20260506220150 | 12 | 185 | 6.4 | 14.5 | 0.13 | 0.66 | 0.66 | 99 | 1006.0 |
| 20260506215647 | 12 | 208 | 4.8 | 20.9 | 0.13 | 0.66 | 0.66 | 99 | 1005.7 |
| 20260506215142 | 12 | 224 | 8.0 | 16.1 | 0.13 | 0.66 | 0.66 | 99 | 1006.0 |
| 20260506214639 | 12 | 201 | 9.7 | 9.7 | 0.13 | 0.64 | 0.64 | 99 | 1005.7 |
| 20260506214137 | 12 | 114 | 4.8 | 19.3 | 0.13 | 0.64 | 0.64 | 99 | 1005.6 |
| 20260506213635 | 12 | 112 | 4.8 | 8.0 | 0.13 | 0.61 | 0.61 | 99 | 1005.8 |
| 20260506213132 | 12 | 55 | 4.8 | 9.7 | 0.13 | 0.61 | 0.61 | 99 | 1005.8 |
| 20260506212629 | 12 | 145 | 4.8 | 9.7 | 0.18 | 0.61 | 0.61 | 99 | 1005.9 |
| 20260506212124 | 12 | 128 | 3.2 | 4.8 | 0.13 | 0.58 | 0.58 | 99 | 1005.9 |
| 20260506211620 | 12 | 227 | 14.5 | 17.7 | 0.13 | 0.56 | 0.56 | 99 | 1006.0 |
| 20260506211117 | 12 | 121 | 4.8 | 6.4 | 0.18 | 0.56 | 0.56 | 99 | 1005.8 |
| 20260506210614 | 12 | 113 | 6.4 | 6.4 | 0.13 | 0.53 | 0.53 | 99 | 1006.0 |
| 20260506210110 | 12 | 160 | 1.6 | 9.7 | 0.13 | 0.53 | 0.53 | 99 | 1006.0 |
| 20260506205607 | 12 | 119 | 8.0 | 8.0 | 0.18 | 0.51 | 0.51 | 99 | 1005.9 |
| 20260506205102 | 12 | 140 | 3.2 | 9.7 | 0.13 | 0.51 | 0.51 | 99 | 1006.0 |
| 20260506204600 | 12 | 67 | 6.4 | 8.0 | 0.18 | 0.48 | 0.48 | 99 | 1006.0 |
| 20260506204057 | 12 | 261 | 9.7 | 12.9 | 0.18 | 0.46 | 0.46 | 99 | 1006.3 |
| 20260506203555 | 12 | 172 | 6.4 | 11.3 | 0.18 | 0.46 | 0.46 | 99 | 1006.1 |
| 20260506203051 | 12 | 110 | 3.2 | 12.9 | 0.18 | 0.43 | 0.43 | 99 | 1006.0 |
| 20260506202549 | 12 | 119 | 6.4 | 17.7 | 0.18 | 0.43 | 0.43 | 99 | 1006.2 |
| 20260506202045 | 12 | 133 | 4.8 | 9.7 | 0.18 | 0.41 | 0.41 | 99 | 1006.2 |
| 20260506201543 | 12 | 344 | 4.8 | 14.5 | 0.23 | 0.41 | 0.41 | 99 | 1006.1 |
| 20260506201039 | 12 | 150 | 6.4 | 11.3 | 0.18 | 0.38 | 0.38 | 99 | 1006.2 |
| 20260506200535 | 12 | 121 | 6.4 | 9.7 | 0.18 | 0.36 | 0.36 | 99 | 1006.2 |
| 20260506200032 | 12 | 125 | 3.2 | 11.3 | 0.18 | 0.33 | 0.33 | 99 | 1006.2 |
| 20260506195529 | 12 | 126 | 3.2 | 11.3 | 0.18 | 0.33 | 0.33 | 99 | 1006.4 |
| 20260506195025 | 13 | 72 | 3.2 | 8.0 | 0.18 | 0.30 | 0.30 | 99 | 1006.4 |
| 20260506194523 | 13 | 103 | 4.8 | 8.0 | 0.23 | 0.28 | 0.28 | 99 | 1006.7 |
| 20260506194020 | 13 | 116 | 4.8 | 4.8 | 0.23 | 0.28 | 0.28 | 99 | 1006.5 |
| 20260506193517 | 13 | 100 | 1.6 | 3.2 | 0.23 | 0.25 | 0.25 | 99 | 1006.5 |
| 20260506193014 | 13 | 102 | 3.2 | 4.8 | 0.18 | 0.23 | 0.23 | 99 | 1006.8 |
| 20260506192511 | 13 | 175 | 3.2 | 4.8 | 0.18 | 0.20 | 0.20 | 99 | 1006.7 |
| 20260506192007 | 13 | 141 | 4.8 | 6.4 | 0.18 | 0.18 | 0.18 | 99 | 1006.8 |
| 20260506191504 | 13 | 175 | 4.8 | 8.0 | 0.23 | 0.18 | 0.18 | 99 | 1006.6 |
| 20260506191000 | 13 | 93 | 3.2 | 6.4 | 0.18 | 0.15 | 0.15 | 99 | 1006.4 |
| 20260506190457 | 13 | 130 | 4.8 | 4.8 | 0.18 | 0.15 | 0.15 | 99 | 1006.6 |
| 20260506185953 | 13 | 98 | 3.2 | 3.2 | 0.18 | 0.13 | 0.13 | 99 | 1006.6 |
| 20260506185451 | 13 | 56 | 1.6 | 3.2 | 0.23 | 0.10 | 0.10 | 98 | 1006.5 |
| 20260506184948 | 14 | 89 | 3.2 | 3.2 | 0.23 | 0.10 | 0.10 | 97 | 1006.6 |
| 20260506184445 | 14 | 100 | 3.2 | 3.2 | 0.18 | 0.08 | 0.08 | 96 | 1006.3 |
| 20260506183942 | 14 | 134 | 1.6 | 6.4 | 0.18 | 0.05 | 0.05 | 94 | 1006.4 |
| 20260506183437 | 15 | 171 | 3.2 | 6.4 | 0.23 | 0.05 | 0.05 | 91 | 1006.4 |
| 20260506182935 | 15 | 164 | 1.6 | 8.0 | 0.13 | 0.03 | 0.03 | 88 | 1006.5 |
| 20260506182432 | 15 | 58 | 1.6 | 16.1 | 0.00 | 0.00 | 0.00 | 86 | 1006.5 |
| 20260506181929 | 15 | 102 | 3.2 | 12.9 | 0.00 | 0.00 | 0.00 | 84 | 1006.6 |
| 20260506181427 | 15 | 117 | 3.2 | 4.8 | 0.00 | 0.00 | 0.00 | 86 | 1006.7 |
| 20260506180923 | 15 | 151 | 4.8 | 8.0 | 0.00 | 0.00 | 0.00 | 86 | 1006.7 |
| 20260506180420 | 15 | 152 | 3.2 | 11.3 | 0.00 | 0.00 | 0.00 | 85 | 1006.7 |
| 20260506175917 | 15 | 121 | 6.4 | 8.0 | 0.00 | 0.00 | 0.00 | 86 | 1006.7 |
| 20260506175414 | 15 | 118 | 6.4 | 9.7 | 0.00 | 0.00 | 0.00 | 86 | 1007.0 |
| 20260506174910 | 15 | 131 | 3.2 | 6.4 | 0.00 | 0.00 | 0.00 | 85 | 1007.0 |
| 20260506174408 | 16 | 139 | 3.2 | 9.7 | 0.00 | 0.00 | 0.00 | 86 | 1006.9 |
| 20260506173905 | 16 | 116 | 6.4 | 12.9 | 0.00 | 0.00 | 0.00 | 83 | 1007.0 |
| 20260506173402 | 16 | 137 | 11.3 | 12.9 | 0.00 | 0.00 | 0.00 | 81 | 1007.2 |
| 20260506172859 | 16 | 134 | 6.4 | 6.4 | 0.00 | 0.00 | 0.00 | 81 | 1007.4 |
| 20260506172355 | 16 | 169 | 6.4 | 6.4 | 0.00 | 0.00 | 0.00 | 80 | 1007.1 |
| 20260506171853 | 16 | 135 | 9.7 | 9.7 | 0.00 | 0.00 | 0.00 | 80 | 1007.4 |
| 20260506171350 | 16 | 136 | 4.8 | 12.9 | 0.00 | 0.00 | 0.00 | 80 | 1007.6 |
| 20260506170848 | 16 | 196 | 8.0 | 8.0 | 0.00 | 0.00 | 0.00 | 79 | 1007.5 |
| 20260506170343 | 16 | 153 | 3.2 | 6.4 | 0.00 | 0.00 | 0.00 | 81 | 1007.6 |
| 20260506165843 | 16 | 169 | 3.2 | 6.4 | 0.00 | 0.00 | 0.00 | 81 | 1007.9 |
| 20260506165340 | 16 | 203 | 3.2 | 9.7 | 0.00 | 0.00 | 0.00 | 82 | 1008.1 |
| 20260506164836 | 16 | 112 | 6.4 | 8.0 | 0.00 | 0.00 | 0.00 | 81 | 1008.2 |
| 20260506164333 | 16 | 121 | 4.8 | 9.7 | 0.00 | 0.00 | 0.00 | 81 | 1008.1 |
| 20260506163831 | 16 | 142 | 4.8 | 8.0 | 0.00 | 0.00 | 0.00 | 80 | 1008.1 |
| 20260506163325 | 16 | 126 | 0.0 | 6.4 | 0.00 | 0.00 | 0.00 | 80 | 1008.0 |
| 20260506162821 | 17 | 215 | 3.2 | 8.0 | 0.00 | 0.00 | 0.00 | 79 | 1008.4 |
| 20260506162319 | 17 | 109 | 4.8 | 4.8 | 0.00 | 0.00 | 0.00 | 79 | 1008.4 |
| 20260506161816 | 16 | 135 | 3.2 | 11.3 | 0.00 | 0.00 | 0.00 | 80 | 1008.4 |
| 20260506161314 | 16 | 240 | 3.2 | 9.7 | 0.00 | 0.00 | 0.00 | 79 | 1008.6 |
| 20260506160812 | 17 | 149 | 4.8 | 8.0 | 0.00 | 0.00 | 0.00 | 79 | 1008.5 |
| 20260506160308 | 17 | 99 | 4.8 | 8.0 | 0.00 | 0.00 | 0.00 | 79 | 1008.6 |
| 20260506155807 | 17 | 129 | 8.0 | 8.0 | 0.00 | 0.00 | 0.00 | 78 | 1008.8 |
| 20260506155306 | 17 | 177 | 3.2 | 8.0 | 0.00 | 0.00 | 0.00 | 78 | 1008.7 |
| 20260506153415 | 17 | 82 | 1.6 | 6.4 | 0.00 | 0.00 | 0.00 | 79 | 1008.6 |
| 20260506152913 | 17 | 189 | 3.2 | 8.0 | 0.00 | 0.00 | 0.00 | 79 | 1008.5 |
| 20260506152410 | 17 | 112 | 4.8 | 6.4 | 0.00 | 0.00 | 0.00 | 79 | 1008.5 |
| 20260506151908 | 16 | 99 | 3.2 | 8.0 | 0.00 | 0.00 | 0.00 | 79 | 1008.6 |
| 20260506151404 | 16 | 133 | 3.2 | 6.4 | 0.00 | 0.00 | 0.00 | 79 | 1008.5 |
| 20260506150902 | 16 | 121 | 6.4 | 9.7 | 0.00 | 0.00 | 0.00 | 79 | 1008.7 |
| 20260506150358 | 16 | 195 | 3.2 | 6.4 | 0.00 | 0.00 | 0.00 | 80 | 1008.4 |
| 20260506145855 | 16 | 132 | 6.4 | 9.7 | 0.00 | 0.00 | 0.00 | 79 | 1008.4 |
| 20260506145351 | 16 | 148 | 3.2 | 6.4 | 0.00 | 0.00 | 0.00 | 79 | 1008.2 |
| 20260506144849 | 16 | 122 | 4.8 | 6.4 | 0.00 | 0.00 | 0.00 | 80 | 1008.2 |
| 20260506144345 | 16 | 123 | 4.8 | 9.7 | 0.00 | 0.00 | 0.00 | 79 | 1008.5 |
| 20260506143844 | 16 | 137 | 8.0 | 9.7 | 0.00 | 0.00 | 0.00 | 80 | 1008.6 |
| 20260506143341 | 15 | 153 | 4.8 | 12.9 | 0.00 | 0.00 | 0.00 | 80 | 1008.6 |
| 20260506142839 | 15 | 152 | 3.2 | 8.0 | 0.00 | 0.00 | 0.00 | 80 | 1008.9 |
| 20260506142337 | 15 | 227 | 4.8 | 6.4 | 0.00 | 0.00 | 0.00 | 80 | 1009.0 |
| 20260506141835 | 15 | 100 | 3.2 | 3.2 | 0.00 | 0.00 | 0.00 | 80 | 1009.2 |
| 20260506141332 | 15 | 113 | 4.8 | 4.8 | 0.00 | 0.00 | 0.00 | 81 | 1009.1 |
| 20260506140830 | 15 | 132 | 3.2 | 4.8 | 0.00 | 0.00 | 0.00 | 80 | 1009.3 |
| 20260506140327 | 16 | 103 | 3.2 | 4.8 | 0.00 | 0.00 | 0.00 | 79 | 1009.1 |
| 20260506135824 | 15 | 120 | 3.2 | 4.8 | 0.00 | 0.00 | 0.00 | 79 | 1009.2 |
| 20260506135320 | 15 | 117 | 4.8 | 6.4 | 0.00 | 0.00 | 0.00 | 80 | 1009.2 |
| 20260506134817 | 15 | 118 | 4.8 | 8.0 | 0.00 | 0.00 | 0.00 | 81 | 1009.4 |
| 20260506134313 | 15 | 135 | 4.8 | 6.4 | 0.00 | 0.00 | 0.00 | 80 | 1009.2 |
| 20260506133810 | 15 | 85 | 3.2 | 6.4 | 0.00 | 0.00 | 0.00 | 81 | 1009.1 |
| 20260506133307 | 15 | 89 | 3.2 | 4.8 | 0.00 | 0.00 | 0.00 | 80 | 1009.2 |
| 20260506132804 | 15 | 73 | 3.2 | 3.2 | 0.00 | 0.00 | 0.00 | 80 | 1009.0 |
| 20260506132301 | 14 | 102 | 6.4 | 11.3 | 0.00 | 0.00 | 0.00 | 81 | 1008.8 |
| 20260506131759 | 15 | 86 | 3.2 | 6.4 | 0.00 | 0.00 | 0.00 | 80 | 1008.9 |
| 20260506131255 | 15 | 68 | 3.2 | 4.8 | 0.00 | 0.00 | 0.00 | 80 | 1009.0 |
| 20260506130752 | 14 | 141 | 0.0 | 8.0 | 0.00 | 0.00 | 0.00 | 80 | 1009.3 |
| 20260506130249 | 15 | 91 | 4.8 | 6.4 | 0.00 | 0.00 | 0.00 | 81 | 1009.1 |
| 20260506125747 | 14 | 66 | 4.8 | 9.7 | 0.00 | 0.00 | 0.00 | 80 | 1009.3 |
| 20260506125244 | 15 | 124 | 3.2 | 6.4 | 0.00 | 0.00 | 0.00 | 81 | 1009.3 |
| 20260506124743 | 14 | 99 | 6.4 | 12.9 | 0.00 | 0.00 | 0.00 | 81 | 1009.2 |
| 20260506124240 | 14 | 98 | 6.4 | 8.0 | 0.00 | 0.00 | 0.00 | 81 | 1009.3 |
| 20260506123737 | 14 | 123 | 4.8 | 8.0 | 0.00 | 0.00 | 0.00 | 81 | 1009.4 |
| 20260506123236 | 14 | 115 | 4.8 | 12.9 | 0.00 | 0.00 | 0.00 | 83 | 1009.6 |
| 20260506122732 | 13 | 89 | 0.0 | 6.4 | 0.00 | 0.00 | 0.00 | 84 | 1010.1 |
| 20260506122229 | 13 | 92 | 4.8 | 6.4 | 0.00 | 0.00 | 0.00 | 84 | 1010.2 |
| 20260506121728 | 13 | 94 | 1.6 | 8.0 | 0.00 | 0.00 | 0.00 | 84 | 1009.9 |
| 20260506121224 | 13 | 83 | 4.8 | 4.8 | 0.00 | 0.00 | 0.00 | 84 | 1009.7 |
| 20260506120722 | 13 | 127 | 6.4 | 8.0 | 0.00 | 0.00 | 0.00 | 84 | 1009.8 |
| 20260506120219 | 13 | 131 | 6.4 | 9.7 | 0.00 | 0.00 | 0.00 | 84 | 1010.0 |
| 20260506115717 | 13 | 95 | 4.8 | 8.0 | 0.00 | 0.00 | 0.00 | 83 | 1010.2 |
| 20260506115215 | 13 | 114 | 4.8 | 9.7 | 0.00 | 0.00 | 0.00 | 84 | 1010.0 |
| 20260506114712 | 13 | 73 | 0.0 | 6.4 | 0.00 | 0.00 | 0.00 | 84 | 1010.0 |
| 20260506114210 | 13 | 100 | 3.2 | 6.4 | 0.00 | 0.00 | 0.00 | 85 | 1010.0 |
| 20260506113708 | 13 | 107 | 3.2 | 4.8 | 0.00 | 0.00 | 0.00 | 85 | 1010.1 |
| 20260506113205 | 12 | 87 | 4.8 | 4.8 | 0.00 | 0.00 | 0.00 | 85 | 1010.1 |
| 20260506112701 | 12 | 94 | 3.2 | 3.2 | 0.00 | 0.00 | 0.00 | 86 | 1010.0 |
| 20260506112159 | 12 | 75 | 3.2 | 3.2 | 0.00 | 0.00 | 0.00 | 87 | 1010.1 |
| 20260506111656 | 12 | 87 | 3.2 | 3.2 | 0.00 | 0.00 | 0.00 | 87 | 1010.2 |
| 20260506111154 | 12 | 100 | 3.2 | 4.8 | 0.00 | 0.00 | 0.00 | 87 | 1010.1 |
| 20260506110651 | 12 | 53 | 3.2 | 4.8 | 0.00 | 0.00 | 0.00 | 88 | 1010.0 |
| 20260506110149 | 12 | 89 | 0.0 | 3.2 | 0.00 | 0.00 | 0.00 | 88 | 1010.1 |
| 20260506105645 | 12 | 94 | 0.0 | 3.2 | 0.00 | 0.00 | 0.00 | 89 | 1009.7 |